When you browse on this site, cookies collect data to enhance your experience and personalize the content and advertising you see.
Visit our Privacy Policy to learn more. By continuing to use the site, you agree to this use of cookies and data.
  • In Czech Republic
  • List of Countries
  • For 7 days
  • Water Temperature
  • Satellite Maps
  • Weather Map
  • Weather Widgets
  • user-avatar
    Login

    Hourly Weather Musajid

    Today, 26 April, Friday

    Time Temperature Precipitation Wind Pressure Humidity
    00:00 +23°C° 0 mm 5 mps 761 mmHg 40%
    01:00 +23°C° 0 mm 5 mps 761 mmHg 41%
    02:00 +22°C° 0 mm 6 mps 760 mmHg 42%
    03:00 +22°C° 0 mm 6 mps 760 mmHg 43%
    04:00 +22°C° 0 mm 6 mps 760 mmHg 43%
    05:00 +22°C° 0 mm 6 mps 760 mmHg 42%
    06:00 +22°C° 0 mm 6 mps 760 mmHg 42%
    07:00 +24°C° 0 mm 6 mps 761 mmHg 37%
    08:00 +27°C° 0 mm 7 mps 761 mmHg 31%
    09:00 +29°C° 0 mm 7 mps 761 mmHg 25%
    10:00 +30°C° 0 mm 7 mps 761 mmHg 24%
    11:00 +32°C° 0 mm 7 mps 761 mmHg 22%
    12:00 +33°C° 0 mm 6 mps 761 mmHg 20%
    13:00 +33°C° 0 mm 7 mps 761 mmHg 20%
    14:00 +33°C° 0 mm 7 mps 760 mmHg 19%
    15:00 +33°C° 0 mm 7 mps 760 mmHg 19%
    16:00 +32°C° 0 mm 7 mps 760 mmHg 19%
    17:00 +30°C° 0 mm 7 mps 760 mmHg 20%
    18:00 +29°C° 0 mm 6 mps 760 mmHg 21%
    19:00 +29°C° 0 mm 6 mps 760 mmHg 22%
    20:00 +28°C° 0 mm 5 mps 761 mmHg 23%
    21:00 +28°C° 0 mm 5 mps 761 mmHg 23%
    22:00 +27°C° 0 mm 5 mps 761 mmHg 26%
    23:00 +27°C° 0 mm 5 mps 760 mmHg 28%

    Tomorrow, 27 April, Saturday

    Time Temperature Precipitation Wind Pressure Humidity
    00:00 +27°C° 0 mm 4 mps 760 mmHg 30%
    01:00 +26°C° 0 mm 5 mps 760 mmHg 32%
    02:00 +26°C° 0 mm 5 mps 760 mmHg 34%
    03:00 +26°C° 0 mm 6 mps 760 mmHg 36%
    04:00 +24°C° 0 mm 6 mps 760 mmHg 38%
    05:00 +25°C° 0 mm 5 mps 760 mmHg 39%
    06:00 +25°C° 0 mm 5 mps 760 mmHg 40%
    07:00 +27°C° 0 mm 5 mps 761 mmHg 34%
    08:00 +29°C° 0 mm 5 mps 761 mmHg 28%
    09:00 +32°C° 0 mm 5 mps 762 mmHg 22%
    10:00 +32°C° 0 mm 5 mps 761 mmHg 21%
    11:00 +33°C° 0 mm 4 mps 761 mmHg 21%
    12:00 +33°C° 0 mm 4 mps 761 mmHg 20%
    13:00 +33°C° 0 mm 5 mps 761 mmHg 20%
    14:00 +33°C° 0 mm 6 mps 760 mmHg 20%
    15:00 +33°C° 0 mm 7 mps 760 mmHg 20%
    16:00 +32°C° 0 mm 7 mps 759 mmHg 21%
    17:00 +30°C° 0 mm 6 mps 759 mmHg 22%
    18:00 +30°C° 0 mm 6 mps 759 mmHg 23%
    19:00 +29°C° 0 mm 5 mps 760 mmHg 25%
    20:00 +28°C° 0 mm 5 mps 760 mmHg 27%
    21:00 +27°C° 0 mm 4 mps 760 mmHg 29%
    22:00 +27°C° 0 mm 4 mps 760 mmHg 33%
    23:00 +26°C° 0 mm 4 mps 760 mmHg 36%

    Day after tomorrow, 28 April, Sunday

    Time Temperature Precipitation Wind Pressure Humidity
    00:00 +26°C° 0 mm 5 mps 760 mmHg 40%
    01:00 +26°C° 0 mm 4 mps 759 mmHg 39%
    02:00 +26°C° 0 mm 4 mps 759 mmHg 37%
    03:00 +26°C° 0 mm 4 mps 759 mmHg 36%
    04:00 +26°C° 0 mm 4 mps 759 mmHg 36%
    05:00 +26°C° 0 mm 4 mps 759 mmHg 36%
    06:00 +26°C° 0 mm 4 mps 759 mmHg 36%
    07:00 +27°C° 0 mm 4 mps 760 mmHg 32%
    08:00 +29°C° 0 mm 4 mps 760 mmHg 29%
    09:00 +30°C° 0 mm 5 mps 760 mmHg 25%
    10:00 +32°C° 0 mm 4 mps 760 mmHg 24%
    11:00 +33°C° 0 mm 4 mps 760 mmHg 24%
    12:00 +34°C° 0 mm 3 mps 760 mmHg 23%
    13:00 +34°C° 0 mm 4 mps 759 mmHg 24%
    14:00 +34°C° 0 mm 4 mps 759 mmHg 26%
    15:00 +34°C° 0 mm 5 mps 758 mmHg 27%
    16:00 +33°C° 0 mm 5 mps 758 mmHg 31%
    17:00 +32°C° 0 mm 6 mps 758 mmHg 35%
    18:00 +30°C° 0 mm 6 mps 758 mmHg 39%
    19:00 +29°C° 0 mm 5 mps 759 mmHg 41%
    20:00 +29°C° 0 mm 5 mps 759 mmHg 42%
    21:00 +28°C° 0 mm 5 mps 760 mmHg 44%
    22:00 +28°C° 0 mm 4 mps 760 mmHg 43%
    23:00 +28°C° 0 mm 3 mps 759 mmHg 42%

    29 April, Monday

    Time Temperature Precipitation Wind Pressure Humidity
    00:00 +28°C° 0 mm 3 mps 759 mmHg 41%
    01:00 +27°C° 0 mm 3 mps 759 mmHg 42%
    02:00 +27°C° 0 mm 2 mps 758 mmHg 43%
    03:00 +27°C° 0 mm 2 mps 758 mmHg 45%
    04:00 +27°C° 0 mm 3 mps 758 mmHg 44%
    05:00 +27°C° 0 mm 3 mps 758 mmHg 44%
    06:00 +27°C° 0 mm 3 mps 759 mmHg 43%
    07:00 +28°C° 0 mm 4 mps 759 mmHg 39%
    08:00 +30°C° 0 mm 4 mps 760 mmHg 35%
    09:00 +32°C° 0 mm 4 mps 760 mmHg 31%
    10:00 +33°C° 0 mm 4 mps 760 mmHg 29%
    11:00 +34°C° 0 mm 4 mps 760 mmHg 28%
    12:00 +35°C° 0 mm 3 mps 760 mmHg 26%
    13:00 +36°C° 0 mm 3 mps 759 mmHg 26%
    14:00 +36°C° 0 mm 3 mps 759 mmHg 26%
    15:00 +36°C° 0 mm 4 mps 758 mmHg 26%
    16:00 +35°C° 0 mm 4 mps 758 mmHg 27%
    17:00 +34°C° 0 mm 4 mps 759 mmHg 29%
    18:00 +34°C° 0 mm 5 mps 759 mmHg 30%
    19:00 +33°C° 0 mm 5 mps 759 mmHg 31%
    20:00 +32°C° 0 mm 5 mps 759 mmHg 32%
    21:00 +30°C° 0 mm 5 mps 759 mmHg 33%
    22:00 +29°C° 0 mm 4 mps 759 mmHg 34%
    23:00 +29°C° 0 mm 4 mps 759 mmHg 35%

    30 April, Tuesday

    Time Temperature Precipitation Wind Pressure Humidity
    00:00 +28°C° 0 mm 4 mps 759 mmHg 36%
    01:00 +28°C° 0 mm 4 mps 758 mmHg 37%
    02:00 +28°C° 0 mm 4 mps 758 mmHg 38%
    03:00 +27°C° 0 mm 4 mps 758 mmHg 39%
    04:00 +27°C° 0 mm 5 mps 758 mmHg 38%
    05:00 +27°C° 0 mm 5 mps 758 mmHg 38%
    06:00 +27°C° 0 mm 5 mps 759 mmHg 37%
    07:00 +29°C° 0 mm 5 mps 759 mmHg 32%
    08:00 +32°C° 0 mm 5 mps 759 mmHg 27%
    09:00 +34°C° 0 mm 5 mps 760 mmHg 21%
    10:00 +35°C° 0 mm 5 mps 759 mmHg 20%
    11:00 +36°C° 0 mm 5 mps 759 mmHg 18%
    12:00 +38°C° 0 mm 4 mps 758 mmHg 17%
    13:00 +39°C° 0 mm 5 mps 758 mmHg 17%
    14:00 +39°C° 0 mm 5 mps 757 mmHg 17%
    15:00 +39°C° 0 mm 5 mps 757 mmHg 17%
    16:00 +37°C° 0 mm 5 mps 757 mmHg 18%
    17:00 +36°C° 0 mm 4 mps 757 mmHg 18%
    18:00 +35°C° 0 mm 4 mps 757 mmHg 19%
    19:00 +34°C° 0 mm 3 mps 757 mmHg 21%
    20:00 +34°C° 0 mm 3 mps 758 mmHg 22%
    21:00 +33°C° 0 mm 3 mps 758 mmHg 23%
    22:00 +31°C° 0 mm 3 mps 757 mmHg 23%
    23:00 +31°C° 0 mm 2 mps 757 mmHg 23%

    1 May, Wednesday

    Time Temperature Precipitation Wind Pressure Humidity
    00:00 +30°C° 0 mm 2 mps 756 mmHg 23%
    01:00 +30°C° 0 mm 2 mps 756 mmHg 24%
    02:00 +30°C° 0 mm 2 mps 755 mmHg 24%
    03:00 +29°C° 0 mm 2 mps 755 mmHg 24%
    04:00 +29°C° 0 mm 2 mps 755 mmHg 25%
    05:00 +30°C° 0 mm 2 mps 755 mmHg 25%
    06:00 +30°C° 0 mm 2 mps 756 mmHg 25%
    07:00 +31°C° 0 mm 2 mps 756 mmHg 24%
    08:00 +32°C° 0 mm 1 mps 756 mmHg 24%
    09:00 +34°C° 0 mm 1 mps 756 mmHg 23%
    10:00 +35°C° 0 mm 1 mps 756 mmHg 21%
    11:00 +37°C° 0 mm 2 mps 756 mmHg 20%
    12:00 +39°C° 0 mm 2 mps 755 mmHg 18%
    13:00 +39°C° 0 mm 3 mps 755 mmHg 18%
    14:00 +40°C° 0 mm 4 mps 755 mmHg 19%
    15:00 +40°C° 0 mm 5 mps 754 mmHg 20%
    16:00 +37°C° 0 mm 4 mps 754 mmHg 22%
    17:00 +36°C° 0 mm 4 mps 754 mmHg 24%
    18:00 +35°C° 0 mm 4 mps 755 mmHg 26%
    19:00 +35°C° 0 mm 4 mps 755 mmHg 27%
    20:00 +34°C° 0 mm 3 mps 755 mmHg 28%
    21:00 +33°C° 0 mm 3 mps 755 mmHg 29%
    22:00 +33°C° 0 mm 3 mps 754 mmHg 29%
    23:00 +33°C° 0 mm 3 mps 754 mmHg 29%
    Show more